CW5439 Weather Reports


Display with metric or nautical units.
time (UTC)temp
F
wind
direction
speed
MPH
gust
MPH
rain 1hr
in
rain 24hr
in
rain mn
in
humidity
%
barometer
mb
20260507094706 52 159 8.0 18.0 0.00 0.00 0.00 71 1011.3
20260507094205 53 176 6.0 15.0 0.00 0.00 0.00 71 1011.4
20260507093705 53 216 5.0 9.0 0.00 0.00 0.00 72 1011.3
20260507093205 53 225 4.0 9.0 0.00 0.00 0.00 70 1011.3
20260507092705 52 184 4.0 9.0 0.00 0.00 0.00 73 1011.2
20260507092206 52 156 4.0 8.0 0.00 0.00 0.00 70 1011.2
20260507091705 52 211 3.0 9.0 0.00 0.00 0.00 72 1011.2
20260507091205 52 126 4.0 9.0 0.00 0.00 0.00 72 1011.2
20260507090731 51 234 3.0 8.0 0.00 0.00 0.00 71 1011.3
20260507090205 51 167 3.0 8.0 0.00 0.00 0.00 70 1011.3
20260507085205 52 127 3.0 10.0 0.00 0.00 0.00 70 1011.4
20260507084706 52 185 4.0 10.0 0.00 0.00 0.00 70 1011.4
20260507084206 52 188 5.0 10.0 0.00 0.00 0.00 70 1011.4
20260507083205 52 113 3.0 9.0 0.00 0.00 0.00 70 1011.4
20260507082705 52 219 3.0 10.0 0.00 0.00 0.00 71 1011.4
20260507081706 51 209 6.0 10.0 0.00 0.00 0.00 70 1011.5
20260507081205 52 215 5.0 10.0 0.00 0.00 0.00 69 1011.5
20260507080704 52 161 4.0 9.0 0.00 0.00 0.00 68 1011.4
20260507080205 53 168 3.0 9.0 0.00 0.00 0.00 68 1011.4
20260507075705 52 119 3.0 11.0 0.00 0.00 0.00 68 1011.5
20260507075206 52 108 4.0 11.0 0.00 0.00 0.00 72 1011.5
20260507074706 51 172 4.0 11.0 0.00 0.00 0.00 69 1011.4
20260507074205 52 159 3.0 8.0 0.00 0.00 0.00 70 1011.4
20260507072705 50 207 3.0 9.0 0.00 0.00 0.00 72 1011.5
20260507072206 50 169 3.0 8.0 0.00 0.00 0.00 73 1011.5
20260507071705 49 230 3.0 8.0 0.00 0.00 0.00 72 1011.5
20260507070705 50 241 3.0 9.0 0.00 0.00 0.00 72 1011.5
20260507070205 50 229 4.0 9.0 0.00 0.00 0.00 73 1011.5
20260507065705 50 147 5.0 9.0 0.00 0.00 0.00 72 1011.5
20260507065205 49 181 2.0 7.0 0.00 0.00 0.00 74 1011.5
20260507064706 49 210 1.0 3.0 0.00 0.00 0.00 78 1011.6
20260507064205 47 205 1.0 3.0 0.00 0.00 0.00 79 1011.6
20260507063707 46 225 1.0 4.0 0.00 0.00 0.00 81 1011.6
20260507062706 44 202 2.0 4.0 0.00 0.00 0.00 83 1011.6
20260507061706 43 180 2.0 4.0 0.00 0.00 0.00 85 1011.6
20260507061205 43 201 1.0 2.0 0.00 0.00 0.00 85 1011.6
20260507060722 43 285 0.0 1.0 0.00 0.00 0.00 85 1011.7
20260507060205 42 285 0.0 1.0 0.00 0.00 0.00 85 1011.7
20260507055705 42 285 0.0 1.0 0.00 0.00 0.00 85 1011.7
20260507054705 42 285 0.0 0.0 0.00 0.00 0.00 84 1011.8
20260507054227 42 285 0.0 0.0 0.00 0.00 0.00 84 1011.7
20260507053727 41 285 0.0 0.0 0.00 0.00 0.00 84 1011.7
20260507052206 41 285 0.0 1.0 0.00 0.00 0.00 83 1011.8
20260507051721 41 285 0.0 1.0 0.00 0.00 0.00 83 1011.8
20260507051204 41 285 0.0 1.0 0.00 0.00 0.00 83 1011.8
20260507050705 41 285 0.0 1.0 0.00 0.00 0.00 83 1011.8
20260507050205 41 285 0.0 2.0 0.00 0.00 0.00 83 1011.8
20260507045705 41 285 0.0 3.0 0.00 0.00 0.00 83 1011.8
20260507044705 41 285 1.0 2.0 0.00 0.00 0.00 83 1011.8
20260507044205 41 146 1.0 3.0 0.00 0.00 0.00 83 1011.8
20260507043705 41 144 1.0 4.0 0.00 0.00 0.00 83 1011.8
20260507043206 41 134 2.0 4.0 0.00 0.00 0.00 83 1011.8
20260507042207 41 115 2.0 3.0 0.00 0.00 0.00 82 1011.7
20260507041707 41 93 1.0 3.0 0.00 0.00 0.00 82 1011.8
20260507040705 42 93 0.0 0.0 0.00 0.00 0.00 81 1011.7
20260507040205 42 93 0.0 0.0 0.00 0.00 0.00 81 1011.7
20260507035704 42 93 0.0 0.0 0.00 0.00 0.00 81 1011.7
20260507035205 42 93 0.0 2.0 0.00 0.00 0.00 81 1011.8
20260507034705 42 93 0.0 2.0 0.00 0.00 0.00 81 1011.8
20260507034205 42 93 1.0 2.0 0.00 0.00 0.00 81 1011.8
20260507033705 42 93 1.0 3.0 0.00 0.00 0.00 81 1011.8
20260507033207 42 93 1.0 3.0 0.00 0.00 0.00 81 1011.8
20260507032705 42 93 1.0 3.0 0.00 0.00 0.00 81 1011.9
20260507032205 42 93 2.0 3.0 0.00 0.00 0.00 81 1011.9
20260507031705 42 93 1.0 2.0 0.00 0.00 0.00 81 1012.0
20260507031205 42 93 0.0 1.0 0.00 0.00 0.00 80 1012.0
20260507030704 42 93 0.0 1.0 0.00 0.00 0.00 80 1012.1
20260507030205 42 93 0.0 1.0 0.00 0.00 0.00 80 1012.1
20260507025705 42 93 0.0 1.0 0.00 0.00 0.00 80 1012.1
20260507025206 42 93 0.0 1.0 0.00 0.00 0.00 79 1012.1
20260507024205 42 93 0.0 2.0 0.00 0.00 0.00 78 1012.1
20260507023705 42 93 0.0 2.0 0.00 0.00 0.00 78 1012.0
20260507023205 42 93 0.0 2.0 0.00 0.00 0.00 78 1012.1
20260507022706 42 93 0.0 2.0 0.00 0.00 0.00 78 1012.0
20260507022206 42 93 1.0 2.0 0.00 0.00 0.00 77 1012.1
20260507021705 42 93 1.0 2.0 0.00 0.00 0.00 77 1012.0
20260507021206 43 93 1.0 2.0 0.00 0.00 0.00 77 1012.0
20260507020206 43 93 1.0 2.0 0.00 0.00 0.00 77 1012.1
20260507015704 43 93 1.0 2.0 0.00 0.00 0.00 76 1012.2
20260507015205 43 93 0.0 2.0 0.00 0.00 0.00 76 1012.2
20260507014206 43 93 0.0 4.0 0.00 0.00 0.00 76 1012.2
20260507013705 43 93 2.0 4.0 0.00 0.00 0.00 76 1012.3
20260507013205 43 91 2.0 4.0 0.00 0.00 0.00 76 1012.3
20260507012232 43 90 1.0 4.0 0.00 0.00 0.00 76 1012.2
20260507011705 43 93 1.0 4.0 0.00 0.00 0.00 76 1012.3
20260507011205 43 81 1.0 4.0 0.00 0.00 0.00 76 1012.2
20260507010705 43 128 2.0 4.0 0.00 0.00 0.00 76 1012.3
20260507010206 43 107 2.0 4.0 0.00 0.00 0.00 76 1012.3
20260507005206 44 123 3.0 6.0 0.00 0.00 0.00 75 1012.4
20260507004704 44 109 3.0 7.0 0.00 0.00 0.00 75 1012.3
20260507004205 44 119 3.0 7.0 0.00 0.00 0.00 75 1012.4
20260507003705 44 118 3.0 7.0 0.00 0.00 0.00 75 1012.4
20260507003205 44 123 3.0 7.0 0.00 0.00 0.00 74 1012.5
20260507001705 44 103 2.0 6.0 0.00 0.00 0.00 74 1012.6
20260507000706 44 102 2.0 4.0 0.00 0.00 0.00 74 1012.6
20260507000205 44 96 2.0 7.0 0.00 0.00 0.00 74 1012.6
20260506235705 45 110 3.0 7.0 0.00 0.00 0.00 74 1012.7
20260506235206 45 114 3.0 5.0 0.00 0.00 0.00 73 1012.7
20260506234226 45 116 3.0 6.0 0.00 0.00 0.00 73 1012.7
20260506233704 45 113 3.0 6.0 0.00 0.00 0.00 73 1012.8
20260506233205 45 110 3.0 6.0 0.00 0.00 0.00 73 1012.8
20260506232706 45 90 3.0 7.0 0.00 0.00 0.00 73 1012.8
20260506232206 45 119 3.0 7.0 0.00 0.00 0.00 72 1012.8
20260506231705 45 97 3.0 7.0 0.00 0.00 0.00 72 1012.8
20260506231205 45 138 3.0 7.0 0.00 0.00 0.00 72 1012.8
20260506230705 45 136 3.0 6.0 0.00 0.00 0.00 72 1012.8
20260506230205 45 131 3.0 6.0 0.00 0.00 0.00 72 1012.8
20260506225704 45 114 3.0 6.0 0.00 0.00 0.00 72 1012.9
20260506225206 45 111 3.0 7.0 0.00 0.00 0.00 72 1012.8
20260506224705 45 125 4.0 8.0 0.00 0.00 0.00 71 1012.8
20260506224205 45 119 4.0 8.0 0.00 0.00 0.00 71 1012.9
20260506223205 46 143 4.0 8.0 0.00 0.00 0.00 71 1012.9
20260506222705 46 116 4.0 8.0 0.00 0.00 0.00 71 1012.9
20260506221710 46 121 4.0 8.0 0.00 0.00 0.00 70 1013.0
20260506221205 46 120 4.0 9.0 0.00 0.00 0.00 70 1012.9
20260506220705 46 117 4.0 9.0 0.00 0.00 0.00 70 1012.9
20260506220209 46 117 4.0 12.0 0.00 0.00 0.00 70 1012.9
20260506215705 46 163 5.0 12.0 0.00 0.00 0.00 69 1012.9
20260506215207 46 142 6.0 12.0 0.00 0.00 0.00 69 1012.8
20260506214705 46 121 6.0 11.0 0.00 0.00 0.00 69 1012.8
20260506214205 46 127 7.0 12.0 0.00 0.00 0.00 69 1012.8
20260506213705 46 114 6.0 12.0 0.00 0.00 0.00 69 1012.9
20260506212704 46 139 6.0 11.0 0.00 0.00 0.00 69 1012.8
20260506212206 46 139 6.0 11.0 0.00 0.00 0.00 69 1012.9
20260506211705 46 107 7.0 12.0 0.00 0.00 0.00 69 1012.9
20260506211205 47 126 7.0 12.0 0.00 0.00 0.00 69 1012.9
20260506210706 47 142 7.0 12.0 0.00 0.00 0.00 69 1013.0
20260506210205 47 121 7.0 12.0 0.00 0.00 0.00 69 1013.0
20260506205705 47 147 7.0 12.0 0.00 0.00 0.00 69 1013.0
20260506205205 47 132 7.0 13.0 0.00 0.00 0.00 69 1013.0
20260506204705 47 131 7.0 13.0 0.00 0.00 0.00 69 1013.1
20260506204205 47 109 6.0 13.0 0.00 0.00 0.00 69 1013.0
20260506203706 47 131 7.0 11.0 0.00 0.00 0.00 69 1013.0
20260506203205 47 125 7.0 11.0 0.00 0.00 0.00 69 1013.1
20260506202706 47 104 7.0 11.0 0.00 0.00 0.00 69 1013.1
20260506202206 47 124 6.0 11.0 0.00 0.00 0.00 69 1013.1
20260506201705 47 134 6.0 15.0 0.00 0.00 0.00 69 1013.0
20260506201206 47 148 7.0 15.0 0.00 0.00 0.00 69 1013.0
20260506200205 47 117 8.0 13.0 0.00 0.00 0.00 68 1013.0
20260506195705 47 107 8.0 13.0 0.00 0.00 0.00 68 1013.0
20260506195205 47 126 8.0 13.0 0.00 0.00 0.00 68 1013.0
20260506193705 48 140 6.0 12.0 0.00 0.00 0.00 68 1013.1
20260506192705 48 127 7.0 12.0 0.00 0.00 0.00 69 1013.0
20260506192206 48 98 6.0 13.0 0.00 0.00 0.00 69 1013.0
20260506191705 48 74 6.0 13.0 0.00 0.00 0.00 68 1013.0
20260506191205 48 115 7.0 13.0 0.00 0.00 0.00 68 1013.0
20260506190709 48 96 7.0 13.0 0.00 0.00 0.00 67 1012.9
20260506190205 48 94 6.0 13.0 0.00 0.00 0.00 67 1012.9
20260506185705 48 103 7.0 13.0 0.00 0.00 0.00 67 1013.0
20260506185206 48 94 6.0 13.0 0.00 0.00 0.00 67 1013.0
20260506184704 48 82 7.0 12.0 0.00 0.00 0.00 67 1013.0
20260506183709 48 71 6.0 13.0 0.00 0.00 0.00 67 1013.0
20260506183205 48 105 7.0 14.0 0.00 0.00 0.00 67 1013.0
20260506182705 49 115 8.0 14.0 0.00 0.00 0.00 67 1013.1
20260506181705 49 114 8.0 14.0 0.00 0.00 0.00 66 1012.9
20260506181206 49 101 7.0 14.0 0.00 0.00 0.00 65 1012.9
20260506180705 49 93 6.0 13.0 0.00 0.00 0.00 65 1013.0
20260506180205 49 90 7.0 13.0 0.00 0.00 0.00 64 1013.0
20260506175705 49 115 7.0 12.0 0.00 0.00 0.00 64 1013.0
20260506175205 49 107 7.0 14.0 0.00 0.00 0.00 64 1013.0
20260506174705 49 68 8.0 14.0 0.00 0.00 0.00 64 1013.0
20260506174205 49 108 8.0 14.0 0.00 0.00 0.00 64 1013.0
20260506173705 50 96 8.0 13.0 0.00 0.00 0.00 63 1013.0
20260506173205 50 91 8.0 13.0 0.00 0.00 0.00 61 1013.1
20260506172705 50 115 9.0 13.0 0.00 0.00 0.00 62 1013.1
20260506172205 50 103 9.0 13.0 0.00 0.00 0.00 59 1013.2
20260506171705 50 91 8.0 12.0 0.00 0.00 0.00 58 1013.2
20260506171205 50 82 7.0 11.0 0.00 0.00 0.00 59 1013.2
20260506170705 50 81 7.0 12.0 0.00 0.00 0.00 58 1013.2
20260506165206 50 107 8.0 14.0 0.00 0.00 0.00 57 1013.2
20260506164205 51 96 9.0 16.0 0.00 0.00 0.00 57 1013.2
20260506162705 51 94 8.0 14.0 0.00 0.00 0.00 56 1013.3
20260506162209 51 105 9.0 14.0 0.00 0.00 0.00 56 1013.4
20260506161707 50 60 9.0 14.0 0.00 0.00 0.00 56 1013.4
20260506161215 50 78 8.0 14.0 0.00 0.00 0.00 54 1013.5
20260506160714 51 85 7.0 15.0 0.00 0.00 0.00 56 1013.6
20260506160234 51 121 8.0 16.0 0.00 0.00 0.00 56 1013.6
20260506155208 51 76 10.0 14.0 0.00 0.00 0.00 57 1013.6
20260506154705 51 80 8.0 14.0 0.00 0.00 0.00 56 1013.6
20260506154205 50 99 8.0 14.0 0.00 0.00 0.00 55 1013.6
20260506153706 50 52 9.0 14.0 0.00 0.00 0.00 54 1013.6
20260506152705 50 90 9.0 14.0 0.00 0.00 0.00 53 1013.7
20260506151704 51 97 8.0 15.0 0.00 0.00 0.00 52 1013.8
20260506150706 51 90 9.0 15.0 0.00 0.00 0.00 53 1013.9
20260506150205 51 107 9.0 13.0 0.00 0.00 0.00 52 1014.0
20260506145706 51 98 8.0 14.0 0.00 0.00 0.00 52 1014.0
20260506145206 51 113 8.0 14.0 0.00 0.00 0.00 54 1014.0
20260506144705 51 73 9.0 14.0 0.00 0.00 0.00 53 1014.0
20260506144205 51 84 9.0 13.0 0.00 0.00 0.00 52 1014.0
20260506143705 51 75 8.0 14.0 0.00 0.00 0.00 52 1014.0
20260506142705 52 77 8.0 14.0 0.00 0.00 0.00 54 1014.1
20260506142206 52 98 8.0 14.0 0.00 0.00 0.00 52 1014.2
20260506141705 53 112 8.0 14.0 0.00 0.00 0.00 51 1014.2
20260506141205 52 109 8.0 14.0 0.00 0.00 0.00 50 1014.2
20260506140705 52 139 7.0 14.0 0.00 0.00 0.00 48 1014.2
20260506140205 53 85 7.0 14.0 0.00 0.00 0.00 44 1014.3
20260506135705 53 86 6.0 14.0 0.00 0.00 0.00 44 1014.3
20260506134705 52 114 5.0 10.0 0.00 0.00 0.00 46 1014.3
20260506134205 51 101 5.0 10.0 0.00 0.00 0.00 48 1014.4
20260506133705 51 118 5.0 10.0 0.00 0.00 0.00 49 1014.4
20260506133205 51 134 4.0 11.0 0.00 0.00 0.00 49 1014.5
20260506132706 51 139 4.0 12.0 0.00 0.00 0.00 51 1014.5
20260506132206 51 130 5.0 12.0 0.00 0.00 0.00 51 1014.6
20260506131705 51 64 4.0 12.0 0.00 0.00 0.00 50 1014.6
20260506131205 52 98 5.0 12.0 0.00 0.00 0.00 51 1014.6
20260506130705 52 115 5.0 11.0 0.00 0.00 0.00 49 1014.5
20260506130206 52 125 5.0 12.0 0.00 0.00 0.00 53 1014.5
20260506125705 52 107 5.0 12.0 0.00 0.00 0.00 53 1014.6
20260506125205 52 113 5.0 12.0 0.00 0.00 0.00 52 1014.6
20260506124705 53 44 7.0 12.0 0.00 0.00 0.00 52 1014.7
20260506124205 52 105 7.0 12.0 0.00 0.00 0.00 53 1014.7
20260506123705 52 107 6.0 10.0 0.00 0.00 0.00 53 1014.7
20260506123206 52 150 5.0 12.0 0.00 0.00 0.00 51 1014.7
20260506122705 53 107 6.0 14.0 0.00 0.00 0.00 52 1014.6
20260506122206 52 116 7.0 14.0 0.00 0.00 0.00 52 1014.6
20260506121705 53 94 7.0 12.0 0.00 0.00 0.00 50 1014.6
20260506120705 52 74 7.0 16.0 0.00 0.00 0.00 51 1014.7
20260506120206 52 86 7.0 16.0 0.00 0.00 0.00 54 1014.6
20260506115704 53 150 7.0 16.0 0.00 0.00 0.00 53 1014.7
20260506114705 53 123 7.0 13.0 0.00 0.00 0.00 52 1014.9
20260506114206 53 65 6.0 13.0 0.00 0.00 0.00 52 1014.9
20260506113705 52 102 5.0 12.0 0.00 0.00 0.00 53 1015.0
20260506113206 51 120 6.0 15.0 0.00 0.00 0.00 54 1015.0
20260506112704 50 78 7.0 15.0 0.00 0.00 0.00 56 1015.1
20260506111705 51 141 6.0 12.0 0.00 0.00 0.00 58 1015.1
20260506111205 52 114 5.0 12.0 0.00 0.00 0.00 52 1015.3
20260506110706 53 114 5.0 12.0 0.00 0.00 0.00 53 1015.1
20260506105705 52 123 6.0 12.0 0.00 0.00 0.00 54 1015.1
20260506105206 53 118 6.0 13.0 0.00 0.00 0.00 53 1015.3
20260506104705 52 117 6.0 13.0 0.00 0.00 0.00 55 1015.1
20260506104205 53 138 6.0 13.0 0.00 0.00 0.00 51 1015.3
20260506103705 53 92 5.0 11.0 0.00 0.00 0.00 55 1015.3
20260506103205 52 140 5.0 11.0 0.00 0.00 0.00 53 1015.3
20260506102705 52 106 5.0 13.0 0.00 0.00 0.00 55 1015.3
20260506102205 53 144 5.0 13.0 0.00 0.00 0.00 53 1015.4
20260506101705 53 148 6.0 13.0 0.00 0.00 0.00 53 1015.3
20260506101205 53 106 5.0 12.0 0.00 0.00 0.00 54 1015.4
20260506100704 52 80 5.0 11.0 0.00 0.00 0.00 57 1015.4
20260506095705 53 101 6.0 11.0 0.00 0.00 0.00 55 1015.5
20260506095206 53 108 5.0 10.0 0.00 0.00 0.00 56 1015.5